AYAN-21 (48944 NORAD) Tracking and Keplerian Element Data

This shows tracking and keplerian element data for the satellite.

Feedback or suggestion? Click here.




ElementValue
Catalog48944
NameAYAN-21
Epoch Orbit1676
Epoch Day287.59400523
Epoch Year2021
RAAN55.0706
Inclination97.5261
Eccentricity0.0015299
Argument of Perigee219.3886
Mean Anonmoly140.6234
Mean Motion15.14311282
Decay Rate2.532E-05
L11 48944U 21059BT 21287.59400523 .00002532 00000-0 14155-3 0 9995
L22 48944 97.5261 55.0706 0015299 219.3886 140.6234 15.14311282 16765

Live tracking and technical data element details for AYAN-21 (NORAD 48944). AYAN-21 can be tracked NOW for your location showing map with azimuth and elevation plus other details from your city location.

Track the satellite on the map from your city or location and see movement details for azimuth, elevation, latitude, longitude, range, height, and movement on the map or in text.







IsCatalogInMostPopularTable: catalog: 48944, numindb: 24
Update: records affected: 1



GetName: 48944 AYAN-21

Hit Count: updated at: Tue, 19 Oct 2021 08:16:50 GMT